Theta_e
340 340 341 341 341 342 343 343 343 346 346 347 346 346 348 346 346 345 345 345 344 340
342 342 340 342 342 343 344 345 345 347 347 347 349 347 346 345 344 345 344 344 344 344
342 343 342 342 342 343 346 346 346 347 348 348 348 348 347 344 346 343 345 346 342 344
343 344 345 344 345 346 345 347 347 346 347 348 348 348 348 345 346 344 343 345 344 342
343 345 345 346 346 347 347 348 348 348 347 347 347 347 346 345 347 345 342 343 342 343
343 343 343 345 347 347 347 347 346 348 347 346 347 348 347 346 345 347 347 344 344 344
343 344 345 345 344 345 346 346 347 347 345 347 347 348 348 348 346 345 347 347 348 349
345 345 345 344 344 345 346 346 346 347 346 347 347 342 341 343 343 344 345 347 347 347
339 339 340 340 340 341 342 345 344 344 343 339 340 330 333 336 337 340 343 344 344 340
339 337 338 342 343 341 340 340 338 336 335 333 332 326 328 329 336 341 343 342 345 344
339 338 338 340 340 341 341 340 336 331 326 324 325 317 320 324 331 339 343 343 341 336
339 337 337 339 339 338 338 337 333 328 322 320 316 314 316 324 332 337 333 331 329 326
337 337 337 337 336 336 335 331 323 317 314 313 309 311 316 331 332 325 321 320 319 319
336 335 335 335 333 330 324 321 316 313 313 312 310 309 312 320 326 323 323 322 316 314
Wind_Speed
7 4 4 5 4 4 4 4 3 5 5 5 5 4 4 1 1 2 1 1 2 2
7 7 6 6 5 4 5 4 5 6 6 5 4 4 3 3 3 2 1 1 3 1
6 7 6 5 6 6 5 4 6 7 6 6 5 5 4 3 3 1 2 3 1 1
6 6 6 6 6 7 4 6 6 7 7 6 6 5 4 5 5 4 3 3 4 5
5 5 6 6 6 6 6 5 6 6 6 6 6 5 6 6 4 5 5 5 4 5
6 6 6 6 5 6 6 6 4 5 7 7 6 6 6 5 6 6 6 5 4 6
6 6 6 5 3 4 5 5 6 6 5 6 6 6 5 5 5 5 5 5 5 5
5 5 4 5 3 3 6 5 3 3 4 4 4 2 3 4 4 4 6 5 4 2
6 4 5 5 4 3 3 5 4 3 3 3 1 4 2 4 4 4 5 5 5 3
5 6 5 4 5 5 4 3 5 6 4 3 3 6 5 8 4 4 4 5 5 4
6 6 5 4 4 4 4 5 4 5 6 4 2 8 8 8 6 4 4 3 5 5
6 6 5 5 6 3 4 3 1 4 6 5 2 9 5 4 5 2 4 4 4 3
4 4 5 5 3 2 3 5 5 6 6 6 4 11 8 3 5 5 5 4 4 7
4 4 3 3 3 4 6 7 7 7 5 5 6 9 11 8 7 5 4 3 3 4
Wind_Direction
183 188 200 191 186 210 205 203 200 220 205 208 188 179 149 120 25 8 88 180 231 197
177 180 196 197 195 203 206 223 219 214 204 212 200 181 161 157 179 178 153 288 320 305
191 190 189 180 199 209 228 216 222 201 201 203 216 202 181 168 211 148 181 182 179 206
201 194 188 191 201 210 212 229 217 199 185 197 211 211 202 201 196 214 202 214 215 215
203 198 184 194 200 196 203 213 207 185 183 196 210 210 211 206 209 227 231 225 211 236
199 198 211 214 190 197 209 206 205 202 186 197 203 203 223 224 226 221 236 233 237 251
194 200 210 216 198 205 225 218 205 204 208 197 199 206 206 217 231 246 243 236 244 269
196 189 155 144 131 195 187 208 241 225 185 204 192 172 191 197 223 247 268 271 248 262
145 171 184 169 175 100 99 147 125 116 161 169 190 149 143 239 234 254 250 241 222 153
165 178 215 231 179 149 121 101 122 100 94 78 49 339 276 279 269 223 234 236 190 201
185 171 183 199 202 178 163 151 138 126 115 80 313 328 302 269 261 260 240 196 160 154
172 171 186 181 195 161 130 105 85 111 110 93 294 347 316 200 200 119 55 49 53 104
153 159 176 192 182 102 91 120 114 80 69 76 47 10 357 69 107 107 95 60 37 30
80 104 111 98 93 103 105 108 102 108 88 81 34 21 37 56 102 114 112 106 70 10